Location: Tierra del Sol
(32.6128°N, 116.3319°W)
Time: 14:41:42
(UTC-08:00)

Envisat - Pass Details

Date: 08 October 2017
Orbit: 764 x 766 km, 98.2° (Epoch: 14 December)

Event Time Altitude Azimuth Distance (km) Brightness Sun altitude
Exits shadow 21:01:56 26° 331° (NNW) 1,477 4.8 -34.5°
Drops below altitude 10° 21:04:09 10° 340° (NNW) 2,307 5.8 -35.0°
Sets 21:06:30 0° 344° (NNW) 3,237 6.6 -35.5°
